Location: Fort Worth, Tx
(32.7431°N, 97.3695°W)
Time: 12:23:21
(UTC-05:00)

Vanguard 1 - All Passes

Search period start: 22 February 2024 00:00
Search period end: 03 March 2024 00:00
Orbit: 653 x 3826 km, 34.3° (Epoch: 21 February)

Date Brightness Start Highest point End Pass type
(mag) Time Alt. Az. Time Alt. Az. Time Alt. Az.
22 Feb - 00:24:48 10° W 00:45:30 86° N 01:08:40 10° E visible
22 Feb - 02:50:18 10° WNW 03:13:43 74° SSW 03:32:43 10° SE visible
22 Feb - 05:18:50 10° WNW 05:37:56 36° SW 05:51:36 10° SSE visible
22 Feb - 17:49:10 10° SSE 17:54:01 14° ESE 18:00:02 10° E daylight
22 Feb - 20:02:19 10° SW 20:13:54 54° SE 20:33:38 10° ENE visible
22 Feb - 22:22:22 10° WSW 22:38:32 89° SSE 23:02:32 10° E visible
23 Feb - 00:45:43 10° W 01:06:53 88° N 01:29:42 10° ESE visible
23 Feb - 03:11:23 10° WNW 03:34:29 66° SSW 03:52:56 10° SE visible
23 Feb - 05:41:11 10° W 05:57:49 27° SW 06:10:18 10° S visible
23 Feb - 18:06:23 10° S 18:13:36 21° SE 18:23:57 10° E daylight
23 Feb - 20:22:13 10° SW 20:34:13 65° SSE 20:55:03 10° ENE visible
23 Feb - 22:43:00 10° W 22:59:44 87° N 23:23:51 10° E visible
24 Feb - 01:06:37 10° W 01:28:11 88° SSW 01:50:37 10° ESE visible
24 Feb - 03:32:34 10° WNW 03:55:03 56° SW 04:12:53 10° SE visible
24 Feb - 06:04:29 10° W 06:17:38 20° SW 06:28:08 10° SSW visible
24 Feb - 18:24:57 10° S 18:33:15 30° SE 18:46:25 10° E daylight
24 Feb - 20:42:19 10° WSW 20:54:44 74° SSE 21:16:23 10° ENE visible
24 Feb - 23:03:41 10° W 23:21:00 86° N 23:45:09 10° E visible
25 Feb - 01:27:31 10° WNW 01:49:21 82° SSW 02:11:22 10° ESE visible
25 Feb - 03:53:55 10° WNW 04:15:25 47° SW 04:32:31 10° SSE visible
25 Feb - 06:30:09 10° WSW 06:37:26 13° WSW 06:43:52 10° SW visible
25 Feb - 18:44:08 10° SSW 18:53:03 39° SE 19:08:16 10° ENE daylight
25 Feb - 21:02:36 10° WSW 21:15:28 83° SSE 21:37:44 10° ENE visible
25 Feb - 23:24:26 10° W 23:42:19 86° N 00:06:26 10° E visible
26 Feb - 01:48:26 10° WNW 02:10:23 74° SSW 02:31:54 10° SE visible
26 Feb - 04:15:34 10° WNW 04:35:37 38° SW 04:51:45 10° SSE visible
26 Feb - 19:03:42 10° SW 19:13:02 50° SE 19:29:49 10° ENE daylight
26 Feb - 21:23:02 10° WSW 21:36:23 89° S 21:59:06 10° E visible
26 Feb - 23:45:11 10° W 00:03:37 88° N 00:27:37 10° ESE visible
27 Feb - 02:09:22 10° WNW 02:31:15 66° SSW 02:52:11 10° SE visible
27 Feb - 04:37:43 10° W 04:55:41 30° SW 05:10:30 10° S visible
27 Feb - 17:08:30 10° SSE 17:13:35 17° SE 17:20:25 10° E daylight
27 Feb - 19:23:32 10° SW 19:33:15 62° SSE 19:51:13 10° ENE visible
27 Feb - 21:43:33 10° W 21:57:25 87° N 22:20:31 10° E visible
28 Feb - 00:05:55 10° WNW 00:24:51 87° SSW 00:48:41 10° ESE visible
28 Feb - 02:30:24 10° WNW 02:51:55 57° SW 03:12:11 10° SE visible
28 Feb - 05:00:44 10° W 05:15:42 22° SW 05:28:27 10° S visible
28 Feb - 17:26:48 10° S 17:33:12 25° SE 17:43:02 10° E daylight
28 Feb - 19:43:36 10° WSW 19:53:40 73° SSE 20:12:33 10° ENE visible
28 Feb - 22:04:08 10° W 22:18:33 85° N 22:41:57 10° E visible
29 Feb - 00:26:40 10° WNW 00:45:59 81° SSW 01:09:33 10° ESE visible
29 Feb - 02:51:36 10° WNW 03:12:26 48° SW 03:31:51 10° SSE visible
29 Feb - 05:25:36 10° W 05:35:42 15° SW 05:44:46 10° SSW visible
29 Feb - 17:45:53 10° SSW 17:52:58 35° SE 18:04:53 10° ENE daylight
29 Feb - 20:03:50 10° WSW 20:14:16 83° SSE 20:33:53 10° ENE visible
29 Feb - 22:24:45 10° W 22:39:42 86° N 23:03:21 10° E visible
01 Mar - 00:47:25 10° WNW 01:07:00 74° SSW 01:30:11 10° SE visible
01 Mar - 03:13:06 10° WNW 03:32:49 39° SW 03:51:07 10° SSE visible
01 Mar - 18:05:24 10° SSW 18:12:53 46° SE 18:26:22 10° ENE daylight
01 Mar - 20:24:11 10° WSW 20:35:02 90° S 20:55:17 10° E visible
01 Mar - 22:45:21 10° W 23:00:52 88° N 23:24:40 10° ESE visible
02 Mar - 01:08:13 10° WNW 01:27:53 66° SSW 01:50:33 10° SE visible
02 Mar - 03:35:03 10° W 03:53:05 31° SW 04:09:53 10° S visible
02 Mar - 16:11:13 10° SSE 16:14:01 12° SE 16:17:19 10° ESE daylight
02 Mar - 18:25:12 10° SW 18:33:01 59° SSE 18:47:41 10° ENE daylight
02 Mar - 20:44:38 10° W 20:55:56 86° N 21:16:43 10° E visible
